CEB621 RPLL-RPSP

Flight info

Callsign CEB621
Flight time N/A
Altitude 35000
Route IPATA2R IPATA W25 BATAY BATAY1P
Aircraft A20N/M-SDE2E3FGHIRWXY/LB1

Departure

Time N/A
Airport Ninoy Aquino International Airport (RPLL)

Arrival

Time 2026-04-27 15:17
Airport Bohol-Panglao International Airport (RPSP)
Time Latitude Longitude Altitude Speed Heading
2026-04-27 15:08 9.43595 123.79920 5219 ft 272 kts 208°
2026-04-27 15:08 9.41915 123.79057 4892 ft 270 kts 208°
2026-04-27 15:08 9.40241 123.78200 4585 ft 268 kts 208°
2026-04-27 15:09 9.38557 123.77335 4261 ft 266 kts 209°
2026-04-27 15:09 9.37109 123.76138 3970 ft 264 kts 240°
2026-04-27 15:09 9.36603 123.74400 3920 ft 248 kts 274°
2026-04-27 15:09 9.36624 123.74034 3885 ft 245 kts 280°
2026-04-27 15:10 9.37363 123.72200 3712 ft 231 kts 303°
2026-04-27 15:11 9.38205 123.70837 3562 ft 223 kts 304°
2026-04-27 15:11 9.39026 123.69514 3415 ft 214 kts 303°
2026-04-27 15:11 9.39847 123.68270 3270 ft 204 kts 316°
2026-04-27 15:11 9.41013 123.67682 3210 ft 184 kts 355°
2026-04-27 15:12 9.42222 123.67935 3037 ft 170 kts 27°
2026-04-27 15:12 9.43195 123.68514 2934 ft 152 kts 31°
2026-04-27 15:12 9.44089 123.69080 2844 ft 150 kts 31°
2026-04-27 15:12 9.44944 123.69614 2675 ft 141 kts 31°
2026-04-27 15:13 9.45777 123.70125 2427 ft 138 kts 30°
2026-04-27 15:13 9.46603 123.70624 2249 ft 138 kts 30°
2026-04-27 15:13 9.47424 123.71118 2067 ft 137 kts 30°
2026-04-27 15:13 9.48249 123.71613 1887 ft 137 kts 30°
2026-04-27 15:14 9.49070 123.72102 1709 ft 137 kts 30°
2026-04-27 15:14 9.49889 123.72591 1529 ft 136 kts 30°
2026-04-27 15:14 9.50706 123.73078 1350 ft 136 kts 30°
2026-04-27 15:14 9.51530 123.73570 1167 ft 136 kts 30°
2026-04-27 15:15 9.52352 123.74059 985 ft 136 kts 30°
2026-04-27 15:15 9.53165 123.74541 794 ft 135 kts 30°
2026-04-27 15:15 9.53981 123.75024 609 ft 135 kts 30°
2026-04-27 15:15 9.54798 123.75510 424 ft 135 kts 30°
2026-04-27 15:16 9.55599 123.75991 255 ft 135 kts 30°
2026-04-27 15:16 9.56401 123.76468 88 ft 134 kts 31°
2026-04-27 15:16 9.57133 123.76911 50 ft 101 kts 30°
2026-04-27 15:16 9.57597 123.77188 50 ft 51 kts 31°
2026-04-27 15:17 9.57768 123.77290 50 ft 11 kts 30°
2026-04-27 15:17 9.57822 123.77322 50 ft 5 kts 29°
2026-04-27 15:17 9.57857 123.77330 50 ft 5 kts
2026-04-27 15:17 9.57886 123.77344 50 ft 4 kts 62°
2026-04-27 15:18 9.57871 123.77362 50 ft 4 kts 189°
2026-04-27 15:18 9.57843 123.77337 50 ft 5 kts 225°
2026-04-27 15:18 9.57807 123.77312 50 ft 6 kts 211°
2026-04-27 15:18 9.57756 123.77282 50 ft 10 kts 211°
2026-04-27 15:19 9.57681 123.77238 50 ft 13 kts 210°
2026-04-27 15:19 9.57596 123.77187 50 ft 14 kts 210°
2026-04-27 15:19 9.57509 123.77135 50 ft 14 kts 210°
2026-04-27 15:19 9.57431 123.77089 50 ft 7 kts 210°
2026-04-27 15:20 9.57380 123.77078 50 ft 8 kts 160°
2026-04-27 15:20 9.57340 123.77123 50 ft 9 kts 121°
2026-04-27 15:20 9.57305 123.77182 50 ft 10 kts 121°
2026-04-27 15:20 9.57276 123.77230 50 ft 6 kts 129°
2026-04-27 15:21 9.57226 123.77243 50 ft 7 kts 207°
2026-04-27 15:21 9.57174 123.77211 50 ft 8 kts 211°
2026-04-27 15:21 9.57118 123.77178 50 ft 9 kts 210°
2026-04-27 15:21 9.57070 123.77150 50 ft 5 kts 210°
2026-04-27 15:22 9.57040 123.77132 50 ft 3 kts 207°
2026-04-27 15:22 9.57020 123.77143 50 ft 4 kts 122°
2026-04-27 15:22 9.57001 123.77174 50 ft 5 kts 121°
2026-04-27 15:22 9.56986 123.77199 50 ft 2 kts 121°
2026-04-27 15:23 9.56984 123.77203 50 ft 0 kts 121°